| time (UTC) | temp F | wind direction | speed MPH | gust MPH | rain 1hr in | rain 24hr in | rain mn in | humidity % | barometer mb |
| 20260509130324 | 60 | 221 | 1.0 | 3.0 | 0.00 | 0.00 | 0.00 | 91 | 1014.0 |
| 20260509125824 | 60 | 217 | 0.0 | 3.0 | 0.00 | 0.00 | 0.00 | 92 | 1014.2 |
| 20260509125322 | 60 | 250 | 0.0 | 3.0 | 0.00 | 0.00 | 0.00 | 92 | 1013.9 |
| 20260509124820 | 59 | 254 | 0.0 | 3.0 | 0.00 | 0.00 | 0.00 | 92 | 1013.9 |
| 20260509124451 | 59 | 185 | 1.0 | 2.0 | 0.00 | 0.00 | 0.00 | 92 | 1014.0 |
| 20260509124419 | 59 | 30 | 1.0 | 3.0 | 0.00 | 0.00 | 0.00 | 92 | 1014.0 |
| 20260509123634 | 59 | 128 | 1.0 | 2.0 | 0.00 | 0.00 | 0.00 | 92 | 1014.2 |
| 20260509122811 | 58 | 86 | 0.0 | 2.0 | 0.00 | 0.00 | 0.00 | 93 | 1014.3 |
| 20260509122438 | 58 | 163 | 0.0 | 2.0 | 0.00 | 0.00 | 0.00 | 93 | 1014.4 |
| 20260509122409 | 58 | 186 | 0.0 | 2.0 | 0.00 | 0.00 | 0.00 | 93 | 1014.3 |
| 20260509121311 | 58 | 202 | 0.0 | 2.0 | 0.00 | 0.00 | 0.00 | 93 | 1014.0 |
| 20260509120806 | 58 | 168 | 0.0 | 2.0 | 0.00 | 0.00 | 0.00 | 93 | 1013.8 |
| 20260509120308 | 58 | 207 | 0.0 | 2.0 | 0.00 | 0.00 | 0.00 | 93 | 1013.9 |
| 20260509115807 | 57 | 234 | 0.0 | 3.0 | 0.00 | 0.00 | 0.00 | 93 | 1014.0 |
| 20260509115308 | 57 | 191 | 0.0 | 3.0 | 0.00 | 0.00 | 0.00 | 93 | 1013.8 |
| 20260509114808 | 57 | 196 | 1.0 | 2.0 | 0.00 | 0.00 | 0.00 | 93 | 1013.6 |
| 20260509114309 | 57 | 134 | 1.0 | 2.0 | 0.00 | 0.00 | 0.00 | 93 | 1013.6 |
| 20260509113807 | 57 | 124 | 0.0 | 2.0 | 0.00 | 0.00 | 0.00 | 93 | 1013.6 |
| 20260509113306 | 56 | 340 | 0.0 | 1.0 | 0.00 | 0.00 | 0.00 | 93 | 1014.0 |
| 20260509112806 | 56 | 340 | 0.0 | 2.0 | 0.00 | 0.00 | 0.00 | 92 | 1014.2 |
| 20260509112307 | 55 | 340 | 0.0 | 2.0 | 0.00 | 0.00 | 0.00 | 92 | 1014.0 |
| 20260509111804 | 55 | 281 | 0.0 | 2.0 | 0.00 | 0.00 | 0.00 | 92 | 1013.9 |
| 20260509111622 | 55 | 185 | 0.0 | 1.0 | 0.00 | 0.00 | 0.00 | 92 | 1013.9 |
| 20260509111117 | 55 | 185 | 0.0 | 1.0 | 0.00 | 0.00 | 0.00 | 92 | 1013.9 |
| 20260509110304 | 55 | 185 | 0.0 | 1.0 | 0.00 | 0.00 | 0.00 | 92 | 1013.8 |
| 20260509105802 | 54 | 185 | 0.0 | 1.0 | 0.00 | 0.00 | 0.00 | 92 | 1013.8 |
| 20260509105258 | 54 | 185 | 0.0 | 1.0 | 0.00 | 0.00 | 0.00 | 91 | 1013.9 |
| 20260509105112 | 54 | 185 | 0.0 | 1.0 | 0.00 | 0.00 | 0.00 | 91 | 1013.9 |
| 20260509104253 | 54 | 185 | 0.0 | 1.0 | 0.00 | 0.00 | 0.00 | 90 | 1013.8 |
| 20260509103754 | 54 | 185 | 0.0 | 1.0 | 0.00 | 0.00 | 0.00 | 90 | 1013.8 |
| 20260509103552 | 54 | 185 | 0.0 | 0.0 | 0.00 | 0.00 | 0.00 | 89 | 1013.6 |
| 20260509102749 | 54 | 185 | 0.0 | 0.0 | 0.00 | 0.00 | 0.00 | 88 | 1013.6 |
| 20260509102246 | 54 | 185 | 0.0 | 0.0 | 0.00 | 0.00 | 0.00 | 88 | 1013.5 |
| 20260509101746 | 54 | 185 | 0.0 | 0.0 | 0.00 | 0.00 | 0.00 | 88 | 1013.4 |
| 20260509101244 | 54 | 185 | 0.0 | 0.0 | 0.00 | 0.00 | 0.00 | 87 | 1013.4 |
| 20260509100748 | 54 | 185 | 0.0 | 0.0 | 0.00 | 0.00 | 0.00 | 87 | 1013.3 |
| 20260509100243 | 54 | 185 | 0.0 | 0.0 | 0.00 | 0.00 | 0.00 | 87 | 1013.1 |
| 20260509095739 | 54 | 185 | 0.0 | 0.0 | 0.00 | 0.00 | 0.00 | 87 | 1013.1 |
| 20260509095239 | 54 | 185 | 0.0 | 0.0 | 0.00 | 0.00 | 0.00 | 87 | 1013.0 |
| 20260509094735 | 54 | 185 | 0.0 | 0.0 | 0.00 | 0.00 | 0.00 | 87 | 1013.0 |
| 20260509094234 | 54 | 185 | 0.0 | 0.0 | 0.00 | 0.00 | 0.00 | 86 | 1013.1 |
| 20260509093730 | 55 | 185 | 0.0 | 0.0 | 0.00 | 0.00 | 0.00 | 86 | 1013.1 |
| 20260509093231 | 55 | 185 | 0.0 | 0.0 | 0.00 | 0.00 | 0.00 | 86 | 1013.1 |
| 20260509093037 | 55 | 185 | 0.0 | 0.0 | 0.00 | 0.00 | 0.00 | 85 | 1013.1 |
| 20260509092230 | 55 | 185 | 0.0 | 0.0 | 0.00 | 0.00 | 0.00 | 85 | 1013.2 |
| 20260509091731 | 55 | 185 | 0.0 | 0.0 | 0.00 | 0.00 | 0.00 | 85 | 1013.3 |
| 20260509091225 | 55 | 185 | 0.0 | 0.0 | 0.00 | 0.00 | 0.00 | 85 | 1013.2 |
| 20260509090722 | 55 | 185 | 0.0 | 0.0 | 0.00 | 0.00 | 0.00 | 85 | 1013.2 |
| 20260509090213 | 55 | 185 | 0.0 | 1.0 | 0.00 | 0.00 | 0.00 | 85 | 1013.0 |
| 20260509090017 | 55 | 185 | 0.0 | 1.0 | 0.00 | 0.00 | 0.00 | 85 | 1013.1 |
| 20260509085552 | 55 | 185 | 0.0 | 1.0 | 0.00 | 0.00 | 0.00 | 85 | 1012.9 |
| 20260509085057 | 56 | 185 | 1.0 | 2.0 | 0.00 | 0.00 | 0.00 | 85 | 1013.0 |
| 20260509084525 | 56 | 185 | 1.0 | 2.0 | 0.00 | 0.00 | 0.00 | 86 | 1012.9 |
| 20260509083711 | 55 | 198 | 1.0 | 2.0 | 0.00 | 0.00 | 0.00 | 85 | 1012.9 |
| 20260509083210 | 55 | 198 | 1.0 | 1.0 | 0.00 | 0.00 | 0.00 | 86 | 1013.0 |
| 20260509082710 | 55 | 198 | 0.0 | 1.0 | 0.00 | 0.00 | 0.00 | 85 | 1013.1 |
| 20260509082213 | 56 | 198 | 0.0 | 1.0 | 0.00 | 0.00 | 0.00 | 84 | 1013.1 |
| 20260509081710 | 56 | 198 | 0.0 | 1.0 | 0.00 | 0.00 | 0.00 | 83 | 1013.0 |
| 20260509081209 | 56 | 198 | 0.0 | 0.0 | 0.00 | 0.00 | 0.00 | 83 | 1012.9 |
| 20260509080710 | 56 | 198 | 0.0 | 0.0 | 0.00 | 0.00 | 0.00 | 83 | 1013.1 |
| 20260509080206 | 56 | 198 | 0.0 | 1.0 | 0.00 | 0.00 | 0.00 | 82 | 1013.1 |
| 20260509075708 | 56 | 198 | 0.0 | 1.0 | 0.00 | 0.00 | 0.00 | 82 | 1013.3 |
| 20260509075207 | 56 | 198 | 0.0 | 1.0 | 0.00 | 0.00 | 0.00 | 81 | 1013.5 |
| 20260509074705 | 56 | 198 | 0.0 | 0.0 | 0.00 | 0.00 | 0.00 | 81 | 1013.4 |
| 20260509074525 | 56 | 198 | 0.0 | 0.0 | 0.00 | 0.00 | 0.00 | 81 | 1013.6 |
| 20260509073704 | 56 | 198 | 0.0 | 0.0 | 0.00 | 0.00 | 0.00 | 80 | 1013.5 |
| 20260509073211 | 56 | 198 | 0.0 | 0.0 | 0.00 | 0.00 | 0.00 | 80 | 1013.5 |
| 20260509072705 | 56 | 198 | 0.0 | 1.0 | 0.00 | 0.00 | 0.00 | 79 | 1013.7 |
| 20260509072156 | 56 | 198 | 0.0 | 2.0 | 0.00 | 0.00 | 0.00 | 79 | 1013.8 |
| 20260509071652 | 56 | 198 | 0.0 | 2.0 | 0.00 | 0.00 | 0.00 | 78 | 1013.9 |
| 20260509071508 | 56 | 147 | 0.0 | 1.0 | 0.00 | 0.00 | 0.00 | 77 | 1014.0 |
| 20260509070649 | 56 | 147 | 0.0 | 1.0 | 0.00 | 0.00 | 0.00 | 77 | 1013.9 |
| 20260509070150 | 56 | 147 | 0.0 | 1.0 | 0.00 | 0.00 | 0.00 | 77 | 1014.0 |
| 20260509065840 | 56 | 147 | 0.0 | 0.0 | 0.00 | 0.00 | 0.00 | 77 | 1014.0 |
| 20260509065756 | 56 | 147 | 0.0 | 1.0 | 0.00 | 0.00 | 0.00 | 77 | 1013.9 |
| 20260509064643 | 56 | 147 | 0.0 | 0.0 | 0.00 | 0.00 | 0.00 | 77 | 1014.2 |
| 20260509064144 | 56 | 147 | 0.0 | 0.0 | 0.00 | 0.00 | 0.00 | 76 | 1014.3 |
| 20260509063644 | 56 | 147 | 0.0 | 0.0 | 0.00 | 0.00 | 0.00 | 77 | 1014.3 |
| 20260509063140 | 56 | 147 | 0.0 | 0.0 | 0.00 | 0.00 | 0.00 | 77 | 1014.4 |
| 20260509062638 | 56 | 147 | 0.0 | 0.0 | 0.00 | 0.00 | 0.00 | 78 | 1014.4 |
| 20260509062137 | 56 | 147 | 0.0 | 1.0 | 0.00 | 0.00 | 0.00 | 79 | 1014.5 |
| 20260509061945 | 56 | 147 | 0.0 | 1.0 | 0.00 | 0.00 | 0.00 | 80 | 1014.6 |
| 20260509061136 | 56 | 147 | 0.0 | 1.0 | 0.00 | 0.00 | 0.00 | 80 | 1014.7 |
| 20260509060636 | 57 | 147 | 0.0 | 1.0 | 0.00 | 0.00 | 0.00 | 80 | 1014.6 |
| 20260509060133 | 57 | 147 | 0.0 | 1.0 | 0.00 | 0.00 | 0.00 | 81 | 1014.8 |
| 20260509055635 | 57 | 147 | 0.0 | 1.0 | 0.00 | 0.00 | 0.00 | 80 | 1014.8 |
| 20260509055133 | 57 | 147 | 0.0 | 0.0 | 0.00 | 0.00 | 0.00 | 78 | 1014.8 |
| 20260509054631 | 57 | 147 | 0.0 | 1.0 | 0.00 | 0.00 | 0.00 | 77 | 1015.0 |
| 20260509054433 | 57 | 147 | 0.0 | 1.0 | 0.00 | 0.00 | 0.00 | 76 | 1015.1 |
| 20260509053942 | 57 | 147 | 0.0 | 0.0 | 0.00 | 0.00 | 0.00 | 76 | 1015.2 |
| 20260509053130 | 57 | 147 | 0.0 | 0.0 | 0.00 | 0.00 | 0.00 | 76 | 1015.2 |
| 20260509052623 | 58 | 147 | 0.0 | 0.0 | 0.00 | 0.00 | 0.00 | 76 | 1015.3 |
| 20260509052124 | 58 | 147 | 0.0 | 0.0 | 0.00 | 0.00 | 0.00 | 75 | 1015.4 |
| 20260509051624 | 58 | 147 | 0.0 | 0.0 | 0.00 | 0.00 | 0.00 | 75 | 1015.3 |
| 20260509051122 | 58 | 147 | 0.0 | 0.0 | 0.00 | 0.00 | 0.00 | 75 | 1015.3 |
| 20260509050625 | 58 | 147 | 0.0 | 0.0 | 0.00 | 0.00 | 0.00 | 75 | 1015.3 |
| 20260509050120 | 58 | 147 | 0.0 | 0.0 | 0.00 | 0.00 | 0.00 | 75 | 1015.4 |
| 20260509045620 | 58 | 147 | 0.0 | 0.0 | 0.00 | 0.00 | 0.00 | 76 | 1015.4 |
| 20260509045121 | 58 | 147 | 0.0 | 0.0 | 0.00 | 0.00 | 0.00 | 76 | 1015.5 |
| 20260509044614 | 58 | 147 | 0.0 | 0.0 | 0.00 | 0.00 | 0.00 | 76 | 1015.6 |
| 20260509044114 | 58 | 147 | 0.0 | 0.0 | 0.00 | 0.00 | 0.00 | 76 | 1015.8 |
| 20260509043616 | 58 | 147 | 0.0 | 1.0 | 0.00 | 0.00 | 0.00 | 76 | 1015.8 |
| 20260509043113 | 58 | 147 | 0.0 | 1.0 | 0.00 | 0.00 | 0.00 | 76 | 1015.8 |
| 20260509042616 | 59 | 147 | 0.0 | 1.0 | 0.00 | 0.00 | 0.00 | 77 | 1015.9 |
| 20260509042115 | 59 | 147 | 0.0 | 1.0 | 0.00 | 0.00 | 0.00 | 76 | 1015.9 |
| 20260509041612 | 59 | 147 | 0.0 | 1.0 | 0.00 | 0.00 | 0.00 | 76 | 1015.9 |
| 20260509041112 | 59 | 147 | 0.0 | 1.0 | 0.00 | 0.00 | 0.00 | 77 | 1015.9 |
| 20260509040613 | 59 | 147 | 0.0 | 1.0 | 0.00 | 0.00 | 0.00 | 78 | 1015.8 |
| 20260509040113 | 59 | 147 | 0.0 | 1.0 | 0.00 | 0.00 | 0.00 | 75 | 1015.8 |
| 20260509035614 | 59 | 147 | 0.0 | 1.0 | 0.00 | 0.00 | 0.00 | 74 | 1015.9 |
| 20260509035114 | 59 | 147 | 0.0 | 1.0 | 0.00 | 0.00 | 0.00 | 74 | 1015.8 |
| 20260509034610 | 59 | 147 | 0.0 | 1.0 | 0.00 | 0.00 | 0.00 | 75 | 1015.7 |
| 20260509034108 | 60 | 147 | 0.0 | 0.0 | 0.00 | 0.00 | 0.00 | 75 | 1015.7 |
| 20260509033608 | 60 | 147 | 0.0 | 0.0 | 0.00 | 0.00 | 0.00 | 76 | 1015.6 |
| 20260509033112 | 60 | 147 | 0.0 | 0.0 | 0.00 | 0.00 | 0.00 | 76 | 1015.5 |
| 20260509032607 | 60 | 147 | 0.0 | 0.0 | 0.00 | 0.00 | 0.00 | 74 | 1015.6 |
| 20260509032105 | 60 | 147 | 0.0 | 0.0 | 0.00 | 0.00 | 0.00 | 73 | 1015.6 |
| 20260509031917 | 60 | 147 | 0.0 | 0.0 | 0.00 | 0.00 | 0.00 | 73 | 1015.6 |
| 20260509031105 | 60 | 147 | 0.0 | 0.0 | 0.00 | 0.00 | 0.00 | 73 | 1015.7 |
| 20260509030605 | 60 | 147 | 0.0 | 0.0 | 0.00 | 0.00 | 0.00 | 73 | 1015.6 |
| 20260509030104 | 60 | 147 | 0.0 | 0.0 | 0.00 | 0.00 | 0.00 | 73 | 1015.6 |
| 20260509025604 | 60 | 147 | 0.0 | 0.0 | 0.00 | 0.00 | 0.00 | 73 | 1015.7 |
| 20260509025105 | 60 | 147 | 0.0 | 0.0 | 0.00 | 0.00 | 0.00 | 72 | 1015.7 |
| 20260509024601 | 60 | 147 | 0.0 | 0.0 | 0.00 | 0.00 | 0.00 | 70 | 1015.8 |
| 20260509024102 | 60 | 147 | 0.0 | 0.0 | 0.00 | 0.00 | 0.00 | 70 | 1015.8 |
| 20260509023559 | 60 | 147 | 0.0 | 0.0 | 0.00 | 0.00 | 0.00 | 70 | 1015.9 |
| 20260509023409 | 61 | 147 | 0.0 | 0.0 | 0.00 | 0.00 | 0.00 | 70 | 1016.0 |
| 20260509022547 | 61 | 147 | 0.0 | 0.0 | 0.00 | 0.00 | 0.00 | 70 | 1016.2 |
| 20260509022042 | 61 | 147 | 0.0 | 0.0 | 0.00 | 0.00 | 0.00 | 69 | 1016.1 |
| 20260509021534 | 61 | 147 | 0.0 | 0.0 | 0.00 | 0.00 | 0.00 | 70 | 1016.0 |
| 20260509021030 | 61 | 147 | 0.0 | 0.0 | 0.00 | 0.00 | 0.00 | 69 | 1016.1 |
| 20260509020529 | 61 | 147 | 0.0 | 0.0 | 0.00 | 0.00 | 0.00 | 69 | 1016.0 |
| 20260509020031 | 62 | 147 | 0.0 | 0.0 | 0.00 | 0.00 | 0.00 | 69 | 1015.8 |
| 20260509015533 | 62 | 147 | 0.0 | 0.0 | 0.00 | 0.00 | 0.00 | 68 | 1015.9 |
| 20260509015029 | 62 | 147 | 0.0 | 0.0 | 0.00 | 0.00 | 0.00 | 67 | 1015.9 |
| 20260509014530 | 62 | 147 | 0.0 | 0.0 | 0.00 | 0.00 | 0.00 | 67 | 1015.9 |
| 20260509014032 | 62 | 147 | 0.0 | 0.0 | 0.00 | 0.00 | 0.00 | 65 | 1015.8 |
| 20260509013533 | 62 | 147 | 0.0 | 0.0 | 0.00 | 0.00 | 0.00 | 65 | 1015.6 |
| 20260509013033 | 62 | 147 | 0.0 | 0.0 | 0.00 | 0.00 | 0.00 | 66 | 1015.6 |
| 20260509012528 | 63 | 147 | 0.0 | 0.0 | 0.00 | 0.00 | 0.00 | 65 | 1015.7 |
| 20260509012027 | 63 | 147 | 0.0 | 0.0 | 0.00 | 0.00 | 0.00 | 64 | 1015.8 |
| 20260509011527 | 63 | 147 | 0.0 | 0.0 | 0.00 | 0.00 | 0.00 | 64 | 1015.5 |
| 20260509011026 | 63 | 147 | 0.0 | 0.0 | 0.00 | 0.00 | 0.00 | 64 | 1015.5 |
| 20260509010528 | 63 | 147 | 0.0 | 0.0 | 0.00 | 0.00 | 0.00 | 64 | 1015.4 |
| 20260509010156 | 63 | 147 | 0.0 | 1.0 | 0.00 | 0.00 | 0.00 | 65 | 1015.5 |
| 20260509010125 | 63 | 147 | 0.0 | 1.0 | 0.00 | 0.00 | 0.00 | 64 | 1015.5 |
| 20260509005021 | 64 | 147 | 0.0 | 1.0 | 0.00 | 0.00 | 0.00 | 62 | 1015.4 |
| 20260509004514 | 65 | 147 | 0.0 | 0.0 | 0.00 | 0.00 | 0.00 | 58 | 1015.3 |
| 20260509004322 | 65 | 147 | 0.0 | 0.0 | 0.00 | 0.00 | 0.00 | 58 | 1015.4 |
| 20260509003515 | 65 | 147 | 0.0 | 0.0 | 0.00 | 0.00 | 0.00 | 58 | 1015.3 |
| 20260509003014 | 66 | 147 | 0.0 | 0.0 | 0.00 | 0.00 | 0.00 | 58 | 1015.3 |
| 20260509002515 | 66 | 147 | 0.0 | 0.0 | 0.00 | 0.00 | 0.00 | 58 | 1015.3 |
| 20260509002013 | 66 | 147 | 0.0 | 0.0 | 0.00 | 0.00 | 0.00 | 57 | 1015.4 |
| 20260509001513 | 66 | 147 | 0.0 | 1.0 | 0.00 | 0.00 | 0.00 | 55 | 1015.2 |
| 20260509001011 | 67 | 147 | 0.0 | 1.0 | 0.00 | 0.00 | 0.00 | 55 | 1015.3 |
| 20260509000512 | 67 | 147 | 0.0 | 1.0 | 0.00 | 0.00 | 0.00 | 54 | 1015.1 |
| 20260509000344 | 67 | 147 | 0.0 | 0.0 | 0.00 | 0.00 | 0.00 | 52 | 1015.2 |
| 20260508235509 | 67 | 147 | 0.0 | 0.0 | 0.00 | 0.00 | 0.00 | 51 | 1014.9 |
| 20260508235009 | 67 | 147 | 0.0 | 0.0 | 0.00 | 0.00 | 0.00 | 52 | 1015.0 |
| 20260508234830 | 68 | 147 | 0.0 | 0.0 | 0.00 | 0.00 | 0.00 | 52 | 1015.1 |
| 20260508234338 | 68 | 147 | 0.0 | 1.0 | 0.00 | 0.00 | 0.00 | 51 | 1014.9 |
| 20260508233509 | 68 | 147 | 0.0 | 1.0 | 0.00 | 0.00 | 0.00 | 50 | 1014.8 |
| 20260508233307 | 68 | 147 | 0.0 | 1.0 | 0.00 | 0.00 | 0.00 | 50 | 1015.0 |
| 20260508232507 | 69 | 190 | 0.0 | 1.0 | 0.00 | 0.00 | 0.00 | 50 | 1015.0 |
| 20260508232007 | 69 | 190 | 0.0 | 1.0 | 0.00 | 0.00 | 0.00 | 49 | 1014.8 |
| 20260508231509 | 69 | 190 | 0.0 | 1.0 | 0.00 | 0.00 | 0.00 | 49 | 1014.9 |
| 20260508231002 | 69 | 190 | 0.0 | 1.0 | 0.00 | 0.00 | 0.00 | 48 | 1014.9 |
| 20260508230502 | 69 | 190 | 0.0 | 1.0 | 0.00 | 0.00 | 0.00 | 47 | 1015.0 |
| 20260508230005 | 69 | 155 | 0.0 | 1.0 | 0.00 | 0.00 | 0.00 | 48 | 1015.0 |
| 20260508225502 | 69 | 156 | 0.0 | 2.0 | 0.00 | 0.00 | 0.00 | 46 | 1015.1 |
| 20260508225004 | 70 | 196 | 0.0 | 2.0 | 0.00 | 0.00 | 0.00 | 46 | 1015.0 |
| 20260508224503 | 70 | 175 | 0.0 | 2.0 | 0.00 | 0.00 | 0.00 | 46 | 1015.0 |
| 20260508224002 | 70 | 212 | 0.0 | 1.0 | 0.00 | 0.00 | 0.00 | 44 | 1015.1 |
| 20260508223502 | 71 | 201 | 0.0 | 2.0 | 0.00 | 0.02 | 0.00 | 45 | 1015.2 |
| 20260508223001 | 71 | 204 | 1.0 | 3.0 | 0.00 | 0.04 | 0.00 | 43 | 1015.2 |
| 20260508222501 | 71 | 187 | 1.0 | 3.0 | 0.00 | 0.06 | 0.00 | 42 | 1015.2 |
| 20260508222003 | 72 | 223 | 1.0 | 3.0 | 0.00 | 0.08 | 0.00 | 41 | 1015.2 |
| 20260508221500 | 72 | 223 | 1.0 | 3.0 | 0.00 | 0.10 | 0.00 | 41 | 1015.1 |
| 20260508220952 | 72 | 228 | 1.0 | 3.0 | 0.00 | 0.14 | 0.00 | 40 | 1015.1 |
| 20260508220450 | 72 | 260 | 1.0 | 3.0 | 0.00 | 0.18 | 0.00 | 40 | 1015.1 |
| 20260508215949 | 72 | 195 | 1.0 | 3.0 | 0.00 | 0.26 | 0.00 | 43 | 1015.0 |
| 20260508215451 | 72 | 169 | 1.0 | 3.0 | 0.00 | 0.30 | 0.00 | 40 | 1014.9 |
| 20260508214948 | 72 | 146 | 1.0 | 3.0 | 0.00 | 0.37 | 0.00 | 40 | 1014.8 |
| 20260508214838 | 71 | 123 | 1.0 | 3.0 | 0.00 | 0.40 | 0.00 | 42 | 1014.9 |
| 20260508213941 | 72 | 138 | 1.0 | 3.0 | 0.00 | 0.41 | 0.00 | 38 | 1014.9 |
| 20260508213442 | 72 | 160 | 1.0 | 3.0 | 0.00 | 0.42 | 0.00 | 36 | 1014.9 |
| 20260508212937 | 73 | 263 | 1.0 | 3.0 | 0.00 | 0.43 | 0.00 | 38 | 1014.9 |
| 20260508212437 | 73 | 97 | 1.0 | 3.0 | 0.00 | 0.48 | 0.00 | 36 | 1014.8 |
| 20260508211938 | 73 | 204 | 1.0 | 3.0 | 0.00 | 0.53 | 0.00 | 37 | 1014.9 |
| 20260508211437 | 73 | 189 | 1.0 | 3.0 | 0.00 | 0.57 | 0.00 | 35 | 1014.9 |
| 20260508210937 | 73 | 202 | 1.0 | 3.0 | 0.00 | 0.67 | 0.00 | 35 | 1015.1 |
| 20260508210434 | 73 | 188 | 1.0 | 3.0 | 0.00 | 0.85 | 0.00 | 37 | 1015.2 |
| 20260508205933 | 74 | 108 | 1.0 | 3.0 | 0.00 | 0.86 | 0.00 | 34 | 1015.1 |
| 20260508205745 | 74 | 207 | 1.0 | 3.0 | 0.00 | 0.87 | 0.00 | 36 | 1015.3 |
| 20260508204938 | 74 | 65 | 1.0 | 3.0 | 0.00 | 0.87 | 0.00 | 34 | 1015.3 |
| 20260508204433 | 74 | 191 | 1.0 | 3.0 | 0.00 | 0.87 | 0.00 | 35 | 1015.2 |
| 20260508203929 | 74 | 238 | 1.0 | 3.0 | 0.00 | 0.87 | 0.00 | 34 | 1015.2 |
| 20260508203430 | 74 | 196 | 1.0 | 3.0 | 0.00 | 0.87 | 0.00 | 37 | 1015.2 |
| 20260508202924 | 74 | 201 | 1.0 | 5.0 | 0.00 | 0.87 | 0.00 | 38 | 1015.1 |
| 20260508202418 | 74 | 138 | 2.0 | 5.0 | 0.00 | 0.87 | 0.00 | 35 | 1015.2 |
| 20260508202108 | 74 | 134 | 1.0 | 3.0 | 0.00 | 0.87 | 0.00 | 36 | 1015.5 |
| 20260508202028 | 74 | 138 | 1.0 | 4.0 | 0.00 | 0.87 | 0.00 | 39 | 1015.5 |
| 20260508200909 | 74 | 48 | 1.0 | 3.0 | 0.00 | 0.87 | 0.00 | 34 | 1015.7 |
| 20260508200410 | 74 | 103 | 1.0 | 3.0 | 0.00 | 0.87 | 0.00 | 34 | 1015.6 |
| 20260508195909 | 73 | 46 | 2.0 | 6.0 | 0.00 | 0.87 | 0.00 | 37 | 1015.6 |
| 20260508195411 | 73 | 198 | 2.0 | 6.0 | 0.00 | 0.87 | 0.00 | 33 | 1015.7 |
| 20260508194912 | 74 | 202 | 1.0 | 4.0 | 0.00 | 0.87 | 0.00 | 37 | 1015.9 |
| 20260508194408 | 75 | 78 | 2.0 | 5.0 | 0.00 | 0.87 | 0.00 | 33 | 1016.0 |
| 20260508193907 | 75 | 15 | 2.0 | 6.0 | 0.00 | 0.87 | 0.00 | 32 | 1016.0 |
| 20260508193405 | 75 | 25 | 2.0 | 6.0 | 0.00 | 0.87 | 0.00 | 32 | 1016.0 |
| 20260508192912 | 75 | 262 | 2.0 | 5.0 | 0.00 | 0.87 | 0.00 | 33 | 1016.2 |
| 20260508192407 | 75 | 211 | 1.0 | 5.0 | 0.00 | 0.87 | 0.00 | 33 | 1016.4 |
| 20260508191903 | 75 | 205 | 1.0 | 4.0 | 0.00 | 0.87 | 0.00 | 32 | 1016.4 |
| 20260508191403 | 75 | 192 | 1.0 | 4.0 | 0.00 | 0.87 | 0.00 | 34 | 1016.4 |
| 20260508190903 | 74 | 211 | 1.0 | 3.0 | 0.00 | 0.87 | 0.00 | 32 | 1016.5 |
| 20260508190405 | 75 | 355 | 1.0 | 3.0 | 0.00 | 0.87 | 0.00 | 34 | 1016.5 |
| 20260508190236 | 74 | 80 | 1.0 | 3.0 | 0.00 | 0.87 | 0.00 | 35 | 1016.6 |
| 20260508185407 | 73 | 14 | 1.0 | 3.0 | 0.00 | 0.87 | 0.00 | 31 | 1016.7 |
| 20260508184902 | 74 | 43 | 2.0 | 5.0 | 0.00 | 0.87 | 0.00 | 35 | 1016.9 |
| 20260508184402 | 73 | 188 | 2.0 | 5.0 | 0.00 | 0.87 | 0.00 | 34 | 1017.1 |
| 20260508183903 | 73 | 144 | 1.0 | 4.0 | 0.00 | 0.87 | 0.00 | 34 | 1017.1 |
| 20260508183403 | 74 | 153 | 1.0 | 2.0 | 0.00 | 0.87 | 0.00 | 34 | 1017.0 |
| 20260508182901 | 73 | 130 | 1.0 | 4.0 | 0.00 | 0.87 | 0.00 | 34 | 1017.0 |
| 20260508182402 | 73 | 136 | 2.0 | 4.0 | 0.00 | 0.87 | 0.00 | 34 | 1017.2 |
| 20260508181903 | 73 | 123 | 2.0 | 4.0 | 0.00 | 0.87 | 0.00 | 32 | 1017.1 |
| 20260508181408 | 73 | 284 | 1.0 | 4.0 | 0.00 | 0.87 | 0.00 | 32 | 1017.3 |
| 20260508180907 | 73 | 208 | 1.0 | 4.0 | 0.00 | 0.87 | 0.00 | 34 | 1017.3 |
| 20260508180405 | 72 | 234 | 1.0 | 4.0 | 0.00 | 0.87 | 0.00 | 30 | 1017.4 |
| 20260508175910 | 71 | 231 | 1.0 | 4.0 | 0.00 | 0.87 | 0.00 | 35 | 1017.5 |
| 20260508175404 | 71 | 96 | 1.0 | 3.0 | 0.00 | 0.87 | 0.00 | 37 | 1017.5 |
| 20260508174910 | 71 | 115 | 1.0 | 4.0 | 0.00 | 0.87 | 0.00 | 36 | 1017.6 |
| 20260508174404 | 70 | 32 | 1.0 | 4.0 | 0.00 | 0.87 | 0.00 | 37 | 1017.7 |
| 20260508173903 | 71 | 101 | 1.0 | 3.0 | 0.00 | 0.87 | 0.00 | 37 | 1017.7 |
| 20260508173402 | 70 | 108 | 1.0 | 3.0 | 0.00 | 0.87 | 0.00 | 38 | 1017.8 |
| 20260508172901 | 70 | 92 | 1.0 | 3.0 | 0.00 | 0.87 | 0.00 | 35 | 1017.8 |
| 20260508172402 | 71 | 102 | 1.0 | 4.0 | 0.00 | 0.87 | 0.00 | 41 | 1017.9 |
| 20260508171900 | 70 | 204 | 1.0 | 4.0 | 0.00 | 0.87 | 0.00 | 37 | 1017.9 |
| 20260508171354 | 69 | 57 | 2.0 | 3.0 | 0.00 | 0.87 | 0.00 | 40 | 1018.0 |
| 20260508170851 | 69 | 136 | 2.0 | 4.0 | 0.00 | 0.87 | 0.00 | 43 | 1018.1 |
| 20260508170343 | 68 | 117 | 2.0 | 7.0 | 0.00 | 0.87 | 0.00 | 45 | 1018.2 |
| 20260508170210 | 67 | 0 | 2.0 | 7.0 | 0.00 | 0.87 | 0.00 | 43 | 1018.4 |
| 20260508165336 | 67 | 300 | 2.0 | 7.0 | 0.00 | 0.87 | 0.00 | 42 | 1018.4 |
| 20260508164835 | 67 | 206 | 2.0 | 7.0 | 0.00 | 0.87 | 0.00 | 42 | 1018.4 |
| 20260508164339 | 66 | 209 | 2.0 | 5.0 | 0.00 | 0.87 | 0.00 | 40 | 1018.6 |
| 20260508163835 | 66 | 10 | 1.0 | 3.0 | 0.00 | 0.87 | 0.00 | 41 | 1018.6 |
| 20260508163337 | 66 | 67 | 2.0 | 3.0 | 0.00 | 0.87 | 0.00 | 42 | 1018.4 |
| 20260508162835 | 65 | 274 | 1.0 | 3.0 | 0.00 | 0.87 | 0.00 | 42 | 1018.6 |
| 20260508162335 | 65 | 59 | 1.0 | 5.0 | 0.00 | 0.87 | 0.00 | 42 | 1018.6 |
| 20260508161834 | 65 | 350 | 2.0 | 5.0 | 0.00 | 0.87 | 0.00 | 39 | 1018.8 |
| 20260508161333 | 65 | 142 | 1.0 | 4.0 | 0.00 | 0.87 | 0.00 | 46 | 1018.8 |
| 20260508160831 | 65 | 136 | 1.0 | 3.0 | 0.00 | 0.87 | 0.00 | 47 | 1018.9 |
| 20260508160331 | 64 | 272 | 2.0 | 6.0 | 0.00 | 0.87 | 0.00 | 48 | 1019.2 |
| 20260508155831 | 64 | 263 | 1.0 | 6.0 | 0.00 | 0.87 | 0.00 | 49 | 1019.2 |
| 20260508155330 | 63 | 203 | 1.0 | 3.0 | 0.00 | 0.87 | 0.00 | 51 | 1019.2 |
| 20260508154833 | 63 | 47 | 1.0 | 3.0 | 0.00 | 0.87 | 0.00 | 52 | 1019.2 |
| 20260508154334 | 62 | 217 | 1.0 | 4.0 | 0.00 | 0.87 | 0.00 | 52 | 1019.2 |
| 20260508153831 | 62 | 127 | 1.0 | 4.0 | 0.00 | 0.87 | 0.00 | 51 | 1019.1 |
| 20260508153324 | 62 | 190 | 1.0 | 4.0 | 0.00 | 0.87 | 0.00 | 54 | 1019.2 |
| 20260508152823 | 61 | 333 | 1.0 | 5.0 | 0.00 | 0.87 | 0.00 | 55 | 1019.1 |
| 20260508152320 | 61 | 340 | 1.0 | 5.0 | 0.00 | 0.87 | 0.00 | 59 | 1019.2 |
| 20260508151821 | 61 | 217 | 1.0 | 3.0 | 0.00 | 0.87 | 0.00 | 59 | 1019.2 |
| 20260508151319 | 60 | 63 | 2.0 | 4.0 | 0.00 | 0.87 | 0.00 | 61 | 1019.2 |
| 20260508150818 | 60 | 49 | 2.0 | 4.0 | 0.00 | 0.87 | 0.00 | 60 | 1019.2 |
| 20260508150319 | 60 | 143 | 1.0 | 4.0 | 0.00 | 0.87 | 0.00 | 62 | 1019.3 |
| 20260508145817 | 60 | 9 | 1.0 | 4.0 | 0.00 | 0.87 | 0.00 | 62 | 1019.3 |
| 20260508145319 | 59 | 235 | 1.0 | 3.0 | 0.00 | 0.88 | 0.00 | 63 | 1019.4 |
| 20260508144817 | 59 | 242 | 1.0 | 2.0 | 0.00 | 0.88 | 0.00 | 65 | 1019.4 |
| 20260508144320 | 59 | 141 | 1.0 | 3.0 | 0.00 | 0.89 | 0.00 | 69 | 1019.4 |
| 20260508143812 | 59 | 141 | 1.0 | 3.0 | 0.00 | 0.89 | 0.00 | 67 | 1019.4 |
| 20260508143314 | 59 | 163 | 1.0 | 3.0 | 0.00 | 0.90 | 0.00 | 67 | 1019.3 |
| 20260508142813 | 59 | 125 | 1.0 | 5.0 | 0.00 | 0.90 | 0.00 | 69 | 1019.3 |
| 20260508142312 | 58 | 143 | 1.0 | 5.0 | 0.00 | 0.91 | 0.00 | 66 | 1019.4 |
| 20260508141815 | 58 | 163 | 1.0 | 3.0 | 0.00 | 0.91 | 0.00 | 67 | 1019.3 |
| 20260508141620 | 58 | 146 | 1.0 | 3.0 | 0.00 | 0.92 | 0.00 | 70 | 1019.4 |
| 20260508140814 | 57 | 312 | 1.0 | 3.0 | 0.00 | 0.92 | 0.00 | 71 | 1019.3 |
| 20260508140643 | 57 | 49 | 1.0 | 3.0 | 0.00 | 0.92 | 0.00 | 72 | 1019.2 |
| 20260508135814 | 57 | 64 | 1.0 | 3.0 | 0.00 | 0.92 | 0.00 | 74 | 1019.2 |
| 20260508135314 | 56 | 60 | 1.0 | 3.0 | 0.00 | 0.93 | 0.00 | 75 | 1019.2 |
| 20260508134815 | 56 | 42 | 1.0 | 3.0 | 0.00 | 0.94 | 0.00 | 76 | 1019.2 |
| 20260508134315 | 56 | 36 | 1.0 | 3.0 | 0.00 | 0.94 | 0.00 | 76 | 1019.2 |
| 20260508133822 | 55 | 109 | 1.0 | 2.0 | 0.00 | 0.94 | 0.00 | 79 | 1019.3 |
| 20260508133315 | 55 | 111 | 1.0 | 2.0 | 0.00 | 0.94 | 0.00 | 80 | 1019.3 |
| 20260508132817 | 54 | 137 | 1.0 | 2.0 | 0.00 | 0.94 | 0.00 | 81 | 1019.2 |
| 20260508132313 | 54 | 137 | 1.0 | 2.0 | 0.00 | 0.94 | 0.00 | 85 | 1019.2 |
| 20260508131811 | 53 | 51 | 1.0 | 2.0 | 0.00 | 0.94 | 0.00 | 84 | 1019.2 |
| 20260508131312 | 52 | 39 | 1.0 | 3.0 | 0.00 | 0.94 | 0.00 | 87 | 1019.1 |
| 20260508131114 | 52 | 48 | 2.0 | 3.0 | 0.00 | 0.94 | 0.00 | 87 | 1019.0 |